Kezdőlap
METAR-TAF:

METAR-TAF

Repülőterek :

Nebraska City Municipal Airport

Nebraska City, Nebraska, Amerikai Egyesült Államok

földrajzi szélesség: 40-36N, földrajzi hosszúság: 095-51W, magasság: 354 m

Jelenlegi meteorológiai megfigyelések

A jelentés 15 perccel ezelõtt készült, 11:15 UTC
Keleti szél 7 kt
Hőmérséklet 5°C
Páratartalom 81%
Légköri nyomás 1014 hPa
Látótávolság: 16.1 km
Szórványos felhőzet 5000 lábon
Szórványos felhőzet 7000 lábon

METAR: KAFK 231115Z AUTO 08007KT 10SM SCT050 SCT070 05/02 A2995 RMK AO2 T00530021

Idő: 06:30 (11:30 UTC)


TAF: hiányzik

Meteorológiai megfigyelések és előrejelzések több, mint 4000 repülőtéren (METAR és TAF jelentéseket).

A térképen piros és sárga pontok jelzik az elérhető meteorológiai állomásokat.

Mozgassa az egeret a pont fölött, hogy megjelenjen az állomás neve.

Azután kattintson az időjárási megfigyelések és előrejelzések megtekintéséhez.

A térkép megváltoztatása: kattintson a fekete keresztel jelölt zöld gombra ráközelítéshez, a vonallal jelölt zöld gombra távolításhoz, vagy a zöld nyilakra a szomszédos térképek eléréséhez.


METAR-TAF: